When you browse on this site, cookies collect data to enhance your experience and personalize the content and advertising you see.
Visit our Privacy Policy to learn more. By continuing to use the site, you agree to this use of cookies and data.
  • In United Kingdom
  • List of Countries
  • For 7 days
  • Water Temperature
  • Satellite Maps
  • Weather Map
  • Weather Widgets
  • user-avatar
    Login

    Hourly Weather Lewice

    Today, 20 February, Wednesday

    Time Temperature Precipitation Wind Pressure Humidity
    00:00 +3°C° 0 mm 7 mps 757 mmHg 86%
    01:00 +1°C° 0 mm 8 mps 757 mmHg 87%
    02:00 +2°C° 0 mm 8 mps 757 mmHg 87%
    03:00 +2°C° 0 mm 8 mps 757 mmHg 86%
    04:00 +2°C° 0 mm 9 mps 758 mmHg 86%
    05:00 +2°C° 0 mm 9 mps 758 mmHg 85%
    06:00 +2°C° 0 mm 8 mps 758 mmHg 83%
    07:00 +2°C° 0 mm 8 mps 758 mmHg 82%
    08:00 +2°C° 0.1 mm 8 mps 759 mmHg 81%
    09:00 +2°C° 0.1 mm 8 mps 759 mmHg 79%
    10:00 +4°C° 0.1 mm 8 mps 760 mmHg 78%
    11:00 +4°C° 0 mm 8 mps 760 mmHg 77%
    12:00 +5°C° 0 mm 8 mps 761 mmHg 75%
    13:00 +5°C° 0 mm 8 mps 761 mmHg 74%
    14:00 +5°C° 0 mm 7 mps 761 mmHg 75%
    15:00 +5°C° 0 mm 6 mps 762 mmHg 77%
    16:00 +5°C° 0 mm 6 mps 762 mmHg 78%
    17:00 +5°C° 0 mm 5 mps 762 mmHg 80%
    18:00 +5°C° 0 mm 5 mps 762 mmHg 83%
    19:00 +5°C° 0 mm 4 mps 763 mmHg 85%
    20:00 +5°C° 0.1 mm 4 mps 763 mmHg 87%
    21:00 +5°C° 0.1 mm 4 mps 763 mmHg 89%
    22:00 +5°C° 0.1 mm 4 mps 763 mmHg 90%
    23:00 +5°C° 0.1 mm 4 mps 763 mmHg 90%

    Tomorrow, 21 February, Thursday

    Time Temperature Precipitation Wind Pressure Humidity
    00:00 +5°C° 0.1 mm 4 mps 763 mmHg 90%
    01:00 +5°C° 0.1 mm 5 mps 763 mmHg 90%
    02:00 +5°C° 0.5 mm 5 mps 763 mmHg 91%
    03:00 +5°C° 0.5 mm 5 mps 762 mmHg 91%
    04:00 +4°C° 0.5 mm 6 mps 762 mmHg 91%
    05:00 +4°C° 1.5 mm 6 mps 761 mmHg 92%
    06:00 +4°C° 1.5 mm 7 mps 761 mmHg 92%
    07:00 +4°C° 1.5 mm 7 mps 761 mmHg 93%
    08:00 +4°C° 0.7 mm 7 mps 761 mmHg 92%
    09:00 +4°C° 0.7 mm 8 mps 761 mmHg 91%
    10:00 +4°C° 0.7 mm 8 mps 761 mmHg 89%
    11:00 +5°C° 0.5 mm 8 mps 761 mmHg 90%
    12:00 +5°C° 0.5 mm 8 mps 761 mmHg 90%
    13:00 +5°C° 0.5 mm 9 mps 761 mmHg 90%
    14:00 +5°C° 0.9 mm 9 mps 761 mmHg 91%
    15:00 +5°C° 0.9 mm 9 mps 761 mmHg 91%
    16:00 +5°C° 0.9 mm 9 mps 761 mmHg 91%
    17:00 +5°C° 0.1 mm 9 mps 761 mmHg 91%
    18:00 +5°C° 0.1 mm 8 mps 762 mmHg 90%
    19:00 +5°C° 0.1 mm 8 mps 762 mmHg 90%
    20:00 +5°C° 0.1 mm 8 mps 763 mmHg 89%
    21:00 +5°C° 0.1 mm 7 mps 763 mmHg 89%
    22:00 +4°C° 0.1 mm 7 mps 764 mmHg 89%
    23:00 +3°C° 0 mm 7 mps 765 mmHg 88%

    Day after tomorrow, 22 February, Friday

    Time Temperature Precipitation Wind Pressure Humidity
    00:00 +2°C° 0 mm 7 mps 766 mmHg 87%
    01:00 +1°C° 0 mm 6 mps 767 mmHg 86%
    02:00 +1°C° 0 mm 6 mps 768 mmHg 85%
    03:00 -1°C° 0 mm 6 mps 769 mmHg 84%
    04:00 -2°C° 0 mm 6 mps 770 mmHg 84%
    05:00 -1°C° 0 mm 5 mps 771 mmHg 82%
    06:00 -2°C° 0 mm 5 mps 772 mmHg 81%
    07:00 -2°C° 0 mm 4 mps 773 mmHg 80%
    08:00 -1°C° 0 mm 4 mps 774 mmHg 74%
    09:00 -1°C° 0 mm 4 mps 774 mmHg 68%
    10:00 0°C° 0 mm 5 mps 775 mmHg 63%
    11:00 0°C° 0 mm 4 mps 775 mmHg 59%
    12:00 +1°C° 0 mm 4 mps 776 mmHg 55%
    13:00 +2°C° 0 mm 3 mps 777 mmHg 51%
    14:00 +2°C° 0 mm 3 mps 777 mmHg 51%
    15:00 +2°C° 0 mm 3 mps 777 mmHg 51%
    16:00 +3°C° 0 mm 2 mps 777 mmHg 51%
    17:00 +2°C° 0 mm 2 mps 777 mmHg 55%
    18:00 +2°C° 0 mm 2 mps 777 mmHg 59%
    19:00 +1°C° 0 mm 2 mps 777 mmHg 63%
    20:00 -1°C° 0 mm 2 mps 778 mmHg 63%
    21:00 -1°C° 0 mm 2 mps 778 mmHg 63%
    22:00 -1°C° 0 mm 2 mps 778 mmHg 63%
    23:00 -1°C° 0 mm 2 mps 778 mmHg 62%

    23 February, Saturday

    Time Temperature Precipitation Wind Pressure Humidity
    00:00 -1°C° 0 mm 3 mps 778 mmHg 62%
    01:00 -1°C° 0 mm 3 mps 778 mmHg 61%
    02:00 -2°C° 0 mm 3 mps 778 mmHg 61%
    03:00 -2°C° 0 mm 3 mps 778 mmHg 60%
    04:00 -2°C° 0 mm 3 mps 777 mmHg 59%
    05:00 -2°C° 0 mm 3 mps 777 mmHg 60%
    06:00 -2°C° 0 mm 3 mps 777 mmHg 61%
    07:00 -2°C° 0 mm 3 mps 777 mmHg 62%
    08:00 -1°C° 0 mm 3 mps 777 mmHg 59%
    09:00 0°C° 0 mm 3 mps 777 mmHg 56%
    10:00 +1°C° 0 mm 3 mps 777 mmHg 53%
    11:00 +2°C° 0 mm 3 mps 776 mmHg 52%
    12:00 +3°C° 0 mm 3 mps 776 mmHg 51%
    13:00 +4°C° 0 mm 3 mps 776 mmHg 50%
    14:00 +4°C° 0 mm 3 mps 776 mmHg 53%
    15:00 +4°C° 0 mm 3 mps 775 mmHg 57%
    16:00 +4°C° 0 mm 3 mps 775 mmHg 60%
    17:00 +3°C° 0 mm 3 mps 775 mmHg 67%
    18:00 +2°C° 0 mm 3 mps 775 mmHg 73%
    19:00 +2°C° 0 mm 2 mps 775 mmHg 79%
    20:00 +2°C° 0 mm 2 mps 775 mmHg 83%
    21:00 +2°C° 0 mm 2 mps 775 mmHg 88%
    22:00 +2°C° 0 mm 2 mps 775 mmHg 92%
    23:00 +2°C° 0 mm 2 mps 775 mmHg 93%

    24 February, Sunday

    Time Temperature Precipitation Wind Pressure Humidity
    00:00 +2°C° 0 mm 2 mps 775 mmHg 94%
    01:00 +2°C° 0 mm 2 mps 775 mmHg 95%
    02:00 +3°C° 0 mm 1 mps 775 mmHg 95%
    03:00 +3°C° 0 mm 1 mps 775 mmHg 95%
    04:00 +3°C° 0 mm 1 mps 775 mmHg 96%
    05:00 +3°C° 0 mm 1 mps 775 mmHg 96%
    06:00 +2°C° 0 mm 1 mps 775 mmHg 96%
    07:00 +2°C° 0 mm 1 mps 775 mmHg 96%
    08:00 +4°C° 0 mm 1 mps 775 mmHg 92%
    09:00 +4°C° 0 mm 0 mps 775 mmHg 89%
    10:00 +5°C° 0 mm 0 mps 776 mmHg 86%
    11:00 +6°C° 0 mm 0 mps 776 mmHg 82%
    12:00 +7°C° 0 mm 0 mps 776 mmHg 79%
    13:00 +8°C° 0 mm 0 mps 776 mmHg 76%
    14:00 +8°C° 0 mm 0 mps 776 mmHg 76%
    15:00 +8°C° 0 mm 1 mps 776 mmHg 77%
    16:00 +8°C° 0 mm 1 mps 775 mmHg 78%
    17:00 +8°C° 0 mm 1 mps 776 mmHg 82%
    18:00 +7°C° 0 mm 1 mps 776 mmHg 86%
    19:00 +5°C° 0 mm 0 mps 776 mmHg 90%
    20:00 +5°C° 0 mm 0 mps 776 mmHg 90%
    21:00 +5°C° 0 mm 0 mps 776 mmHg 90%
    22:00 +5°C° 0 mm 0 mps 776 mmHg 90%
    23:00 +5°C° 0 mm 0 mps 776 mmHg 90%

    25 February, Monday

    Time Temperature Precipitation Wind Pressure Humidity
    00:00 +4°C° 0 mm 0 mps 777 mmHg 91%
    01:00 +4°C° 0 mm 0 mps 777 mmHg 91%
    02:00 +4°C° 0 mm 0 mps 777 mmHg 91%
    03:00 +5°C° 0 mm 1 mps 776 mmHg 92%
    04:00 +4°C° 0 mm 1 mps 776 mmHg 92%
    05:00 +4°C° 0 mm 1 mps 776 mmHg 93%
    06:00 +4°C° 0 mm 1 mps 776 mmHg 94%
    07:00 +3°C° 0 mm 2 mps 776 mmHg 94%
    08:00 +4°C° 0 mm 2 mps 777 mmHg 93%
    09:00 +5°C° 0 mm 2 mps 777 mmHg 91%
    10:00 +5°C° 0 mm 3 mps 777 mmHg 89%
    11:00 +5°C° 0 mm 3 mps 777 mmHg 86%
    12:00 +7°C° 0 mm 3 mps 777 mmHg 83%
    13:00 +7°C° 0 mm 3 mps 777 mmHg 81%
    14:00 +6°C° 0 mm 4 mps 777 mmHg 82%
    15:00 +6°C° 0 mm 4 mps 777 mmHg 83%
    16:00 +5°C° 0 mm 4 mps 777 mmHg 84%
    17:00 +4°C° 0 mm 4 mps 777 mmHg 87%
    18:00 +3°C° 0 mm 3 mps 777 mmHg 90%
    19:00 +2°C° 0 mm 3 mps 777 mmHg 93%
    20:00 +3°C° 0 mm 2 mps 777 mmHg 91%
    21:00 +2°C° 0 mm 2 mps 777 mmHg 88%
    22:00 +2°C° 0 mm 2 mps 777 mmHg 85%
    23:00 +3°C° 0 mm 1 mps 777 mmHg 83%
    Show more